斑竹:听风岁月
 标题 作者 点击 回复 回复时间
荣威i6 2018款 20T 自动互联网智享版 携筱親 15 0 05-14 14:38
车,对一个男人来说那么重要吗意义在哪? 苏锦大大666 62 1 03-31 12:59
超低油耗的一款“神器”,你值得拥有 张馨艺_prevalen 156 4 03-31 12:58
智付 (Dinpay)是中国领先的独立第三方支付公司(转载) 刷锅ABC 12 1 03-31 12:57
小六子我的第二辆车已经到手,出来交下提车作业 小混侠瞿88 110 2 03-31 12:34
成都车展可算是看爽了,美滋滋啊!!! 想忘记应33 92 3 03-13 22:21
还在因为荣威ERX5的续航里程担忧吗? reconcil可爱小 217 0 09-14 14:49
荣威ERX5解决你的后顾之忧 deviatio心理咨 221 0 09-14 14:49
无论从什么角度欣赏我的i6都是那么的美! fake美好未来何 111 0 09-07 13:16
早买早享受,我买的i6可以提车了! 暗夜深狱暗夜深5 126 0 09-07 13:08
颜值控的代表——荣威i6 身体太绕卓00 138 0 09-07 13:01
我家的白色荣威i6,真是低调而奢华 墨小调贡_wring 197 0 09-07 12:50
试驾荣威i6,简单说下试驾感受 黄爱飞厍66 151 0 09-07 12:46
如果你以为i6只是漂亮又省油,那么你会失去很多乐趣 殇夏无伤11 105 1 09-07 12:42
荣威i6,你买车不得不看的品牌! forersrs 110 0 09-07 12:34
功能强大又省油的i6,内饰细节也非常用心 把酒封杯云nut 52 0 09-07 12:30
新到家的荣威i6拉出来晒晒 揮霍小advertis 78 0 09-06 17:11
居家实用型家轿——荣威i6 integritmlml 44 0 09-06 16:23
荣威i6,终于到手了! nickname做那最 66 0 09-05 14:14
和大家说说我用荣威i6的感受吧! discours虾嬷嬷 91 0 09-05 14:06
颜值控选它准没错 bugle阿迪安娜麻 16 0 09-04 16:12
荣威i6性价比是不是真有那么好? marshal柠檬淡茶 114 1 09-04 16:01
试驾君告诉你:荣威ERX5有多帅 evaporat我们好 87 0 09-03 12:01
新车异味问题,有朋友可以支个招吗? correlat未完待 27 0 09-03 11:43
话不多说,直接说一说荣威i6用车感受 marginaleses 58 0 09-03 11:27
国产车里,我觉得它还是不错的。 champion歌手潘 70 0 09-03 11:23
车展见i6,有点小惊喜~ 村落农instabil 38 2 08-31 18:10
轰轰烈烈的成都车展正在火热举行 uproar我是土豆 13 0 08-30 21:15
成都车展拉开帷幕,期待期待 木头娃娃柳77 6 0 08-30 19:55
人头攒动的成都车展啊! subscrip小佐 19 2 08-30 10:07
成都车展里面一些升级和改款车型也颇有看点 kineticshsh 9 0 08-30 08:22
朋友跳票,一人看展收获颇丰! consulxixi 10 0 08-29 20:22
来车展的目的只有一个,探访我心中的混动车 deposit红莲人形 20 0 08-29 19:30
居家代步小能手——荣威360用车作业 end土狗刀刀陆 62 0 08-29 18:07
【成都车展】靓车美女汇集地 潇湘枫雨inertia 30 2 08-29 14:34
成都车展荣威又给我们展示了什么新花样 quarterl一爱一 21 0 08-28 20:59
豪车美女,让你挪不开眼睛! 幻海雨夜衡66 47 3 08-26 22:11
美女如云,成都车展进行中 deviatio心理咨 43 2 08-26 22:11
又来车展了,听说还是规模最大的一次,个人看好改款950 燃瞿33 35 2 08-26 22:10
按耐不住提车的喜悦,说说我的小e migrate船过水无 24 0 08-26 17:40
寻找36D小姐姐,成都车展福利走一遭~ reconcil可爱小 158 0 08-26 16:48
成都车展,带你撩豪车看美女 西楼月如勾尤11 44 2 08-26 14:39
成都车展了,小伙伴们有去围观的没? 暗夜深狱暗夜深5 20 2 08-26 14:38
跟着我走,成都车展看个够 梦花飘雪77 24 2 08-26 14:36
除了新款950还有成都美食 远东二中怀33 26 2 08-26 14:34
i6的用车小感,油耗我还算满意 身体太绕卓00 37 0 08-24 20:41
全是缘分,喜提爱车 fake美好未来何 32 0 08-23 12:02
不得不说荣威i6真的值得购买 墨小调贡_wring 89 0 08-22 20:44
带着朋友自驾游去长白山咯 黄爱飞厍66 23 0 08-22 14:45
保养归来 遭遇倾盆大雨 殇夏无伤11 19 0 08-22 14:45
难得的聚会,深圳车友小聚马峦山 揮霍小advertis 17 0 08-21 21:38
今天看了一下i6觉得挺牛逼的 把酒封杯云nut 25 0 08-21 20:22
从你的世界路过,然后带上i6一起回家! quartz冯绒绒 15 0 08-21 20:10
荣威550 1.8L艾森ECU升级,感受中前段提速惊喜!(转载) kiji2015 32 0 08-21 17:32
卖小车换大车,你们怎么选择的 integritmlml 25 0 08-21 13:07
爱上一座山,爱上一趟旅行 nickname做那最 10 0 08-21 12:12
开着新车出游,心情杠杠的 discours虾嬷嬷 11 0 08-21 12:01
提车荣威i6后有感 就是我韶_wrench 47 0 08-21 11:29
首次带着我的荣威i6做了面膜,保养之后更靓了 marshal柠檬淡茶 34 1 08-21 11:00
今天给大家分享一下我的I6使用初体验 张馨艺_prevalen 16 0 08-21 10:56
荣威RX5使用三个月后的感受 我是恋晨韦22 232 1 08-20 19:12
来自一位荣威RX5车主的用车心得 evaporat我们好 183 0 08-20 19:04
关于荣威RX5,早提早开走! correlat未完待 123 0 08-20 18:53
暑假到了,就让我们驾着爱车荣威I6,一起贵州游 marginaleses 13 0 08-20 18:09
暑假自驾大连游 学习娱乐两不误 champion歌手潘 9 0 08-20 18:00
一些关于荣威i6的小小体验 村落农instabil 24 0 08-20 17:00
提车了,好开心 uproar我是土豆 20 0 08-20 16:54
炫一下我的爱车,求赞! 木头娃娃柳77 11 0 08-20 16:40
有你陪伴真好 rapidity打酱油 9 0 08-19 16:17
提车荣威i6 不一样的体验 晴朗在_depositi 33 0 08-19 16:11
开着i6嗨起来! subscrip小佐 12 0 08-19 16:07
高端大气上档次,低调奢华有内涵 kineticshsh 18 0 08-19 15:54
分享荣威i6的驾驶体验! consulxixi 16 0 08-19 15:50
新的陪伴,我的爱车荣威小六! deposit红莲人形 10 0 08-19 15:45
汽车也需要养护 end土狗刀刀陆 12 1 08-19 15:39
带着我的小6去保养咯 璐过留痕酆_can 12 0 08-19 15:35
终于选到了心仪的车 哈哈呵ascertai 5 0 08-19 15:28
细说一下我家荣威i6给我的点点惊喜! 想忘记应33 14 0 08-19 15:26
荣威i6选车经历 潇湘枫雨inertia 18 0 08-19 15:23
互联网高科技,这就是荣威i6 quarterl一爱一 13 0 08-19 15:15